Overview Statistics Trail Chart Weather Telemetry Raw packets
 

This is the latest recevied weather packets stored in our database for station/object KH6HHG. If no packets are shown the sender has not sent any weather packets the latest 10 day(s).

<< 59 60 61 62 63 64 65 >>
Time Temp. Humidity Pressure Rain* Wind** Luminosity Snow
1777290247 16.67° C 87% 1011.8 hPa 0 mm - - -
1777289947 16.67° C 87% 1011.9 hPa 0 mm - - -
1777289647 16.67° C 86% 1011.9 hPa 0 mm - - -
1777289347 16.67° C 86% 1012 hPa 0 mm - - -
1777289046 16.67° C 84% 1012 hPa 0 mm - - -
1777288747 17.22° C 81% 1012 hPa 0 mm - - -
1777288447 17.22° C 82% 1012.1 hPa 0 mm - - -
1777288147 17.22° C 83% 1012.1 hPa 0 mm - - -
1777287847 17.22° C 85% 1012.1 hPa 0 mm - - -
1777287547 17.22° C 87% 1012.3 hPa 0 mm - - -
1777287247 17.22° C 85% 1012.3 hPa 0 mm - - -
1777286947 17.22° C 85% 1012.4 hPa 0 mm - - -
1777286647 17.22° C 83% 1012.5 hPa 0 mm - - -
1777286347 17.22° C 77% 1012.5 hPa 0 mm - - -
1777286047 17.22° C 77% 1012.5 hPa 0 mm - - -
1777285747 17.22° C 80% 1012.6 hPa 0 mm - - -
1777285447 17.78° C 80% 1012.6 hPa 0 mm - - -
1777285147 17.78° C 81% 1012.6 hPa 0 mm - - -
1777284847 17.78° C 80% 1012.7 hPa 0 mm - - -
1777284547 18.33° C 79% 1012.8 hPa 0 mm - - -
1777284247 18.33° C 78% 1012.8 hPa 0 mm - - -
1777283946 18.33° C 74% 1013 hPa 0 mm - - -
1777283646 18.89° C 71% 1012.9 hPa 0 mm - - -
1777283346 18.89° C 69% 1012.9 hPa 0 mm - - -
1777283048 19.44° C 69% 1013 hPa 0 mm - - -

* Rain latest hour (hover to see other rain measurements)
** Current wind speed in m/s (hover to see current wind gust speed)